Weather observations for the past three days for
Dunkirk, Chautauqua County / Dunkirk Airport
Metric (Imperial)
Date Time (edt) Wind (kph) Vis. (km) Weather Sky Cond. Temperature (ºC) Relative Humidity Wind Chill (°C) Heat Index (°C) Pressure Precipitation (cm)
Air Dwpt 6 hour altimeter (cm) sea level (mb) 1 hr 3 hr 6 hr
Max. Min.
03 19:53 SW 20 G 37 16.09 Overcast OVC100 12.8 0.6 13.9 12.2 44% 75.77 1010.4
03 18:53 SW 30 G 48 16.09 Overcast OVC095 12.2 0 43% 75.79 1010.8
03 17:53 W 30 G 61 16.09 Overcast OVC085 13.3 0 40% 75.79 1010.9
03 16:53 SW 33 G 59 16.09 Partly Cloudy and Breezy SCT095 13.3 0.6 42% 75.79 1010.8
03 15:53 SW 35 G 63 16.09 Light Rain and Breezy FEW120 12.8 0.6 44% 75.84 1011.5
03 14:53 SW 26 G 59 16.09 Mostly Cloudy BKN100 12.8 0.6 44% 75.9 1012.2
03 13:53 W 26 G 56 16.09 Mostly Cloudy BKN100 BKN120 12.8 -2.2 12.8 5.6 36% 75.95 1012.7
03 12:53 W 24 G 54 16.09 Mostly Cloudy BKN110 12.2 -3.3 34% 76 1013.5
03 11:53 SW 31 G 48 16.09 Mostly Cloudy BKN085 10 -2.2 43% 7 76.07 1014.5
03 10:53 W 28 G 50 16.09 Mostly Cloudy BKN100 8.9 2.2 63% 6 76.1 1015.0
03 09:53 W 28 G 48 16.09 A Few Clouds FEW075 8.9 1.1 58% 6 76.12 1015.1
03 08:53 SW 24 G 50 16.09 Fair CLR 7.8 1.1 63% 5 76.1 1015.0
03 07:53 S 13 16.09 Fair CLR 5.6 0 5.6 1.1 68% 3 76.1 1014.9
03 06:53 SW 11 16.09 Fair CLR 2.8 -1.1 76% 0 76.1 1014.9
03 05:53 SW 13 16.09 Mostly Cloudy BKN075 2.8 -0.6 79% -0 76.07 1014.8
03 04:53 SW 9 16.09 Mostly Cloudy BKN075 1.7 -0.6 85% -1 76.1 1015.1
03 03:53 SW 11 16.09 Fair CLR 2.2 0 86% -1 76.12 1015.3
03 02:53 W 13 16.09 Fair CLR 4.4 0.6 77% 2 76.12 1015.2
03 01:53 W 11 16.09 Fair CLR 4.4 0 5.6 3.3 73% 2 76.12 1015.4
03 00:53 SW 11 16.09 Fair CLR 3.9 1.1 82% 1 76.15 1015.8
02 23:53 SW 9 16.09 Mostly Cloudy BKN080 3.9 0.6 79% 2 76.17 1016.0
02 22:53 SW 9 16.09 Overcast OVC080 5 0.6 73% 3 76.2 1016.3
02 21:53 SW 15 16.09 Overcast FEW060 OVC080 5 0 70% 2 76.2 1016.5
02 20:53 SW 17 16.09 Overcast FEW047 FEW060 OVC080 5 0 70% 2 76.2 1016.5
02 19:53 W 15 16.09 Overcast OVC047 5.6 0 7.8 5 68% 3 76.2 1016.3
02 18:53 SW 19 16.09 Overcast OVC055 5.6 -0.6 65% 2 76.2 1016.3
02 17:53 W 26 G 37 16.09 Overcast OVC080 6.1 -1.1 60% 2 76.17 1016.2
02 16:53 W 22 G 37 16.09 Partly Cloudy SCT075 6.7 -2.2 53% 3 76.17 1016.0
02 15:53 W 20 G 39 16.09 Fair CLR 7.2 -2.8 49% 4 76.17 1016.1
02 14:53 W 15 G 31 16.09 Fair CLR 7.2 -3.9 46% 5 76.2 1016.5
02 13:53 W 17 G 31 16.09 Partly Cloudy SCT080 6.7 -3.9 7.2 3.3 47% 4 76.2 1016.5
02 12:53 W 19 16.09 A Few Clouds FEW090 6.1 -3.3 51% 3 76.23 1016.6
02 11:53 W 15 G 30 16.09 Fair CLR 5 -1.7 62% 2 76.25 1017.1
02 10:53 NW 15 16.09 Overcast OVC100 5 -2.2 60% 2 76.23 1016.7
02 09:53 W 17 16.09 Overcast OVC100 5 -2.2 60% 2 76.23 1016.9
02 08:53 NW 13 16.09 Overcast SCT060 OVC100 3.9 -2.8 62% 1 76.25 1017.1
02 07:53 W 7 16.09 Overcast SCT050 OVC100 3.3 -2.8 3.9 1.1 65% 2 76.25 1017.1
02 06:53 W 7 16.09 Overcast OVC090 2.8 -2.2 70% 1 76.23 1016.7
02 05:53 NW 7 16.09 Overcast OVC090 2.8 -1.7 73% 1 76.17 1016.1
02 04:53 W 7 16.09 Overcast OVC070 2.8 -1.7 73% 1 76.17 1016.0
02 03:53 Calm 16.09 Mostly Cloudy BKN095 3.3 -1.7 70% 76.12 1015.3
02 02:53 SW 9 16.09 Overcast OVC095 3.9 -1.7 67% 2 76.12 1015.4
02 01:53 NW 13 16.09 A Few Clouds FEW095 3.9 -1.7 5.6 3.3 67% 1 76.17 1015.9
02 00:53 NW 15 16.09 Mostly Cloudy BKN085 4.4 -1.7 65% 1 76.15 1015.7
01 23:53 W 7 16.09 Fair CLR 3.3 1.1 86% 2 76.1 1015.2
01 22:53 W 7 16.09 Partly Cloudy SCT085 4.4 1.7 83% 3 76.1 1015.1
01 21:53 SW 11 16.09 Overcast FEW075 OVC095 4.4 1.7 83% 2 76.1 1014.9
01 20:53 SW 9 16.09 Overcast FEW055 BKN075 OVC090 5 2.2 82% 3 76.05 1014.3
01 19:53 W 13 16.09 Overcast OVC070 5.6 2.8 6.7 3.9 82% 3 76 1013.8
01 18:53 SW 7 16.09 Overcast OVC080 6.7 2.8 76% 6 75.95 1013.0
01 17:53 S 9 16.09 Overcast OVC070 6.1 3.3 82% 4 75.92 1012.8
01 16:53 Calm 16.09 Light Rain BKN043 OVC060 5.6 2.8 82% 75.92 1012.9
01 15:53 Vrbl 6 16.09 Overcast OVC017 5 1.7 79% 75.95 1013.1
01 14:53 Vrbl 9 16.09 Overcast OVC013 5 2.2 82% 3 75.97 1013.2
01 13:53 N 7 16.09 Light Rain BKN010 OVC022 3.9 1.7 6.1 3.9 86% 2 76 1013.7 0.05 0.2
01 12:53 N 11 14.48 Light Rain OVC012 3.9 2.2 89% 1 75.97 1013.5 0.05
01 11:53 N 7 16.09 Overcast OVC014 3.9 1.7 86% 2 76 1013.8 0.08
01 10:53 NW 7 16.09 Light Rain OVC019 4.4 1.7 83% 3 76.02 1014.1 0.03 0.03
01 09:53 W 7 16.09 Overcast OVC055 6.1 1.1 71% 5 76.02 1013.8
01 08:53 SW 6 16.09 Overcast OVC070 5.6 1.7 76% 76 1013.7
01 07:53 SW 11 16.09 Overcast OVC070 4.4 1.1 4.4 0.6 79% 2 76.02 1014.1
01 06:53 SW 6 16.09 Mostly Cloudy BKN085 2.2 0 86% 76.02 1014.1
01 05:53 SW 7 16.09 Mostly Cloudy BKN095 BKN120 1.1 0.6 97% -1 76 1013.8
01 04:53 Calm 16.09 A Few Clouds FEW100 1.1 -0.6 89% 76.02 1014.1
01 03:53 S 6 16.09 Fair CLR 1.7 0 89% 76.02 1014.0
01 02:53 SW 6 16.09 Fair CLR 2.2 1.1 93% 76.02 1014.1
01 01:53 SW 9 16.09 Fair CLR 2.8 1.1 7.2 2.8 89% 1 76.05 1014.5
01 00:53 SW 9 16.09 Fair CLR 3.9 2.2 89% 2 76.07 1014.5
30 23:53 SW 15 16.09 Fair CLR 4.4 3.3 93% 1 76.05 1014.4
30 22:53 SW 9 16.09 A Few Clouds FEW100 5.6 2.8 82% 4 76.07 1014.5
30 21:53 SW 13 16.09 Overcast SCT045 BKN060 OVC075 6.1 3.3 82% 4 76.07 1014.6
30 20:53 W 15 16.09 Overcast BKN044 OVC070 6.7 3.9 83% 4 76.05 1014.1
Date Time (edt) Wind (kph) Vis. (km) Weather Sky Cond. Air Dwpt Max. Min. Relative Humidity Wind Chill (°C) Heat Index (°C) altimeter (cm) sea level (mb) 1 hr 3 hr 6 hr
6 hour
Temperature (ºC) Pressure Precipitation (cm)